• Processing (Info)

  • MPEC 2014-K70 : 2014 KF46

    The following Minor Planet Electronic Circular may be linked-to from your own Web pages, but must not otherwise be redistributed electronically.

    A form allowing access to any MPEC is at the bottom of this page.


    Read MPEC 2014-K69 Read MPEC 2014-K71


    M.P.E.C. 2014-K70                                Issued 2014 May 28, 15:06 UT
    
         The Minor Planet Electronic Circulars contain information on unusual
             minor planets and routine data on comets.  They are published
       on behalf of Commission 20 of the International Astronomical Union by the
              Minor Planet Center, Smithsonian Astrophysical Observatory,
                              Cambridge, MA 02138, U.S.A.
    
                 Prepared using the Tamkin Foundation Computer Network
    
                                  MPC@CFA.HARVARD.EDU
                URL https://www.minorplanetcenter.net/    ISSN 1523-6714
    
                                       2014 KF46
    
    Observations:
         K14K46F* C2014 05 27.43565 16 34 32.09 +23 54 27.3          19.2 VqEK070703
         K14K46F  C2014 05 27.44355 16 34 19.68 +23 50 55.5          19.0 VqEK070703
         K14K46F  C2014 05 27.45145 16 34 07.23 +23 47 21.6          18.4 VqEK070703
         K14K46F  C2014 05 27.46453 16 33 46.64 +23 41 23.4                qEK070703
         K14K46F  C2014 05 27.46538 16 33 45.17 +23 40 59.0                qEK070703
         K14K46F  C2014 05 27.46623 16 33 43.81 +23 40 34.6                qEK070703
         K14K46F  C2014 05 27.62173 16 30 08.07 +22 24 36.3          19.0 VqEK070900
         K14K46F  C2014 05 27.62580 16 30 00.15 +22 22 22.8          18.3 VqEK070900
         K14K46F  C2014 05 27.62980 16 29 52.12 +22 20 08.1          19.1 VqEK070900
         K14K46F  C2014 05 27.64253 16 29 26.75 +22 13 01.8          19.3 VqEK070900
         K14K46F  C2014 05 27.64797 16 29 16.14 +22 10 01.5          18.3 VqEK070900
         K14K46F  C2014 05 27.65341 16 29 04.91 +22 06 51.9          18.7 VqEK070900
         K14K46F KC2014 05 27.89683 16 21 04.40 +19 17 41.7          17.8 VqEK070958
         K14K46F KC2014 05 27.89874 16 20 59.40 +19 16 09.0          18.3 VqEK070958
         K14K46F KC2014 05 27.91016 16 20 29.01 +19 06 46.7          17.9 VqEK070958
         K14K46F KC2014 05 27.91501 16 20 15.81 +19 02 42.4          19.1 VqEK070958
         K14K46F KC2014 05 27.91691 16 20 10.60 +19 01 06.9          18.8 VqEK070958
         K14K46F KC2014 05 27.92832 16 19 39.23 +18 51 26.5          18.3 VqEK070958
         K14K46F KC2014 05 27.95367716 18 26.44 +18 29 00.8          17.9 VqEK070I93
         K14K46F KC2014 05 27.95999516 18 08.09 +18 23 18.9          17.9 VqEK070I93
         K14K46F KC2014 05 27.96729516 17 46.57 +18 16 37.7          18.5 VqEK070I93
         K14K46F  C2014 05 28.24076 16 02 29.75 +12 52 01.6          18.1 VqEK070I52
         K14K46F  C2014 05 28.24092 16 02 29.01 +12 51 47.2          17.9 VqEK070I52
         K14K46F  C2014 05 28.24107 16 02 28.33 +12 51 33.5          17.5 VqEK070I52
         K14K46F KC2014 05 28.24546216 01 45.26 +12 42 59.8          17.2 VrEK070H21
         K14K46F KC2014 05 28.24727816 01 36.85 +12 40 10.0          17.9 VrEK070H21
         K14K46F KC2014 05 28.24920416 01 27.89 +12 37 09.0          18.5 VrEK070H21
         K14K46F KC2014 05 28.26360116 00 19.76 +12 14 07.6          17.7 VuEK070H21
         K14K46F KC2014 05 28.26595016 00 08.48 +12 10 18.4          17.6 VuEK070H21
         K14K46F KC2014 05 28.29470 15 57 54.03 +11 22 17.7          17.6 RqEK070H36
         K14K46F KC2014 05 28.29718 15 57 41.35 +11 17 57.2          17.0 RqEK070H36
         K14K46F KC2014 05 28.29966 15 57 28.67 +11 13 36.6          17.4 RqEK070H36
         K14K46F KC2014 05 28.30333 15 57 09.93 +11 07 10.2          18.0 RqEK070H36
         K14K46F KC2014 05 28.30581 15 56 57.17 +11 02 46.3          17.7 RqEK070H36
    
    Observer details:
    703 Catalina Sky Survey.  Observer J. A. Johnson.  Measurers E. J. Christensen,
        A. R. Gibbs, A. D. Grauer, R. E. Hill, J. A. Johnson, R. A. Kowalski,
        S. M. Larson, R. J. Sanders, F. C. Shelly.  0.68-m Schmidt + CCD.
    900 Moriyama.  Observer Y. Ikari.  0.26-m f/7.0 reflector + CCD.
    958 Observatoire de Dax.  Observers P. Dupouy, J. B. de Vanssay.  Measurer
        P. Dupouy.  0.43-m f/2.7 reflector + CCD.
    H21 Astronomical Research Observatory, Westfield.  Observers R. Holmes,
        T. Linder.  Measurers R. Holmes, T. Linder, T. Vorobjov, L. Buzzi,
        S. Foglia, T. Lister.  0.61-m f/4.0 astrograph + CCD, 0.76-m f/3.0
        astrograph + CCD.
    H36 Sandlot Observatory, Scranton.  Observer G. Hug.  0.56-m reflector + CCD.
    I52 Steward Observatory, Mt. Lemmon Station.  Observer A. R. Gibbs.  Measurers
        E. J. Christensen, A. R. Gibbs, A. D. Grauer, R. E. Hill, J. A. Johnson,
        R. A. Kowalski, S. M. Larson, R. J. Sanders, F. C. Shelly.  1.0-m
        reflector + CCD.
    I93 St Pardon de Conques.  Observer F. Losse.  0.40-m f/3.7 reflector + CCD.
    
    Orbital elements:
    2014 KF46                                                Earth MOID = 0.0036 AU
    Epoch 2014 May 23.0 TT = JDT 2456800.5                  MPC
    M 325.68886              (2000.0)            P               Q
    n   0.62119725     Peri.  242.47544     +0.54757402     +0.72443201
    a   1.3603470      Node    67.08371     -0.51233471     +0.68594511
    e   0.3579827      Incl.   27.04204     -0.66157074     +0.06839278
    P   1.59           H   26.5           G   0.15           U   7
    Residuals in seconds of arc
    140527 703  0.2+  0.7+    140527 958  1.3-  0.5-    140528 H21  0.6+  0.7+
    140527 703  0.1+  0.2+    140527 958  0.8-  0.1-    140528 H21  0.9+  1.2+
    140527 703  0.0   0.0     140527 958  0.4+  0.8+    140528 H21  1.0+  1.5+
    140527 703  1.5+  0.8+    140527 958  0.6-  0.9-    140528 H21  0.5-  0.5-
    140527 703  0.1-  0.0     140527 958  1.1-  0.7-    140528 H21  0.8-  0.5-
    140527 703  0.3-  0.8-    140527 958  0.3-  0.1+    140528 H36  0.7+  1.1+
    140527 900  1.0-  0.8-    140527 I93  0.5-  0.4-    140528 H36  0.8-  0.8-
    140527 900  0.4-  0.7-    140527 I93  0.4+  0.3+    140528 H36  1.6-  1.5-
    140527 900 (2.6-  3.2-)   140527 I93  0.3+  0.1-    140528 H36  0.8-  0.6-
    140527 900 (3.6-  3.2-)   140528 I52  0.6+  0.7+    140528 H36  0.8-  1.1-
    140527 900  0.8+  1.3+    140528 I52  0.5+  1.1+
    140527 900 (2.5-  1.8-)   140528 I52  0.7+  1.2+
    
    Ephemeris:
    2014 KF46                a,e,i = 1.36, 0.36, 27                  q = 0.8734
    Date    TT    R. A. (2000) Decl.     Delta      r     Elong.  Phase     V
    2014 04 28    17 07 06.4 +31 59 17   0.3055  1.1857   119.1    47.9    26.1
    ...
    2014 05 13    17 11 02.2 +33 23 45   0.1578  1.1016   121.8    51.2    24.6
    ...
    2014 05 21    17 07 52.2 +32 53 50   0.07910 1.0581   123.8    52.6    23.0
    ...
    2014 05 27    16 43 07.6 +26 23 50   0.02029 1.0268   131.9    47.3    19.9
    2014 05 28    16 16 10.1 +17 52 23   0.01082 1.0217   140.7    38.9    18.3
    2014 05 29    13 36 22.1 -35 40 12   0.0040871.0167   141.3    38.6    16.1
    ...
    2014 06 04    05 30 17.1 -38 01 42   0.05899 0.9874    61.3   115.7    24.9
    ...
    2014 06 12    05 21 55.8 -35 49 31   0.1372  0.9519    58.9   114.0    26.5
    ...
    2014 06 27    05 19 33.8 -32 47 28   0.2809  0.9002    58.1   106.6    27.5
    
    A. U. Tomatic                (C) Copyright 2014 MPC           M.P.E.C. 2014-K70
    

    Read MPEC 2014-K69 Read MPEC 2014-K71


    MPEC number:

    Enter an MPEC number in one of the following forms:

    • 1997-B01 (the full form)
    • J97B01 (the packed version of the full form)
    • B01 (the abbreviated form)